GW1418 Weather Reports


Display with metric or nautical units.
time (UTC)temp
F
wind
direction
speed
MPH
gust
MPH
rain 1hr
in
rain 24hr
in
rain mn
in
humidity
%
barometer
mb
20260507044757 55 135 0.0 0.0 0.00 0.12 0.12 88 1018.7
20260507044253 55 137 0.0 0.0 0.00 0.12 0.12 88 1018.3
20260507043750 55 130 0.0 0.0 0.00 0.12 0.12 87 1018.3
20260507043247 55 130 0.0 0.0 0.00 0.12 0.12 87 1018.7
20260507042743 56 131 0.0 0.0 0.00 0.12 0.12 87 1018.3
20260507042238 56 129 0.0 0.0 0.00 0.12 0.12 87 1018.7
20260507041736 56 137 0.0 1.0 0.00 0.12 0.12 87 1018.7
20260507041232 56 137 0.0 0.0 0.00 0.12 0.12 87 1018.7
20260507040729 56 134 0.0 0.0 0.00 0.12 0.12 86 1018.7
20260507040225 56 134 0.0 0.0 0.00 0.12 0.12 86 1018.7
20260507035721 56 131 0.0 0.0 0.00 0.12 0.12 86 1018.7
20260507035217 56 131 0.0 0.0 0.00 0.12 0.12 85 1018.7
20260507034714 56 133 0.0 0.0 0.00 0.12 0.12 85 1018.7
20260507034212 56 130 0.0 0.0 0.00 0.12 0.12 86 1018.7
20260507033710 56 130 0.0 0.0 0.00 0.12 0.12 85 1018.7
20260507033207 56 130 0.0 0.0 0.00 0.12 0.12 84 1018.7
20260507032704 56 130 0.0 0.0 0.00 0.12 0.12 84 1018.7
20260507032200 57 130 0.0 0.0 0.00 0.12 0.12 84 1018.3
20260507031657 57 130 0.0 0.0 0.00 0.12 0.12 83 1018.7
20260507031153 57 130 0.0 0.0 0.00 0.12 0.12 83 1018.3
20260507030650 57 133 0.0 0.0 0.00 0.12 0.12 83 1018.3
20260507030148 57 132 0.0 0.0 0.00 0.12 0.12 82 1018.3
20260507025645 58 132 0.0 0.0 0.00 0.12 0.12 82 1018.3
20260507025142 58 133 0.0 0.0 0.00 0.12 0.12 81 1018.0
20260507024640 58 131 0.0 0.0 0.00 0.12 0.12 81 1018.0
20260507024137 59 131 0.0 0.0 0.00 0.12 0.12 80 1018.0
20260507023632 59 132 0.0 0.0 0.00 0.12 0.12 79 1018.0
20260507023130 59 136 0.0 0.0 0.00 0.12 0.12 79 1018.3
20260507022627 59 131 0.0 0.0 0.00 0.12 0.12 79 1018.0
20260507022122 59 130 0.0 0.0 0.00 0.12 0.12 78 1018.0
20260507021619 60 129 0.0 0.0 0.00 0.12 0.12 77 1018.0
20260507021115 60 127 0.0 0.0 0.00 0.12 0.12 76 1017.6
20260507020613 60 72 1.0 2.0 0.00 0.12 0.12 75 1017.6
20260507020109 60 117 1.0 1.0 0.00 0.12 0.12 75 1017.2
20260507015608 60 110 1.0 1.0 0.00 0.12 0.12 75 1017.2
20260507015105 61 109 1.0 2.0 0.00 0.12 0.12 74 1017.2
20260507014601 61 122 1.0 2.0 0.00 0.12 0.12 75 1017.2
20260507014057 61 115 3.0 3.0 0.00 0.12 0.12 75 1017.2
20260507013554 61 121 1.0 2.0 0.00 0.12 0.12 75 1017.2
20260507013051 61 127 1.0 2.0 0.00 0.12 0.12 75 1017.2
20260507012548 62 122 1.0 1.0 0.00 0.12 0.12 74 1017.2
20260507012038 62 125 2.0 2.0 0.00 0.12 0.12 73 1016.9
20260507011536 62 120 1.0 1.0 0.00 0.12 0.12 73 1016.9
20260507011032 62 106 2.0 3.0 0.00 0.12 0.12 73 1016.9
20260507010526 63 119 1.0 3.0 0.00 0.12 0.12 72 1016.5
20260507010023 63 60 2.0 2.0 0.00 0.12 0.12 71 1016.5
20260507005521 64 127 0.0 1.0 0.00 0.12 0.12 70 1016.5
20260507005017 65 125 0.0 0.0 0.00 0.12 0.12 69 1016.2
20260507004514 64 106 0.0 0.0 0.00 0.12 0.12 70 1016.5
20260507004012 64 155 2.0 2.0 0.00 0.12 0.12 70 1016.2
20260507003507 64 108 2.0 2.0 0.00 0.12 0.12 70 1016.2
20260507003002 64 44 4.0 6.0 0.00 0.12 0.12 69 1016.2
20260507002459 65 130 1.0 2.0 0.00 0.12 0.12 68 1015.9
20260507001955 66 128 1.0 1.0 0.00 0.12 0.12 68 1015.9
20260507001452 66 16 3.0 3.0 0.00 0.12 0.12 67 1015.5
20260507000949 67 343 4.0 8.0 0.00 0.12 0.12 67 1015.9
20260507000445 67 44 3.0 5.0 0.00 0.12 0.12 66 1015.9
20260506235940 67 121 1.0 1.0 0.00 0.12 0.12 65 1015.9
20260506235438 68 353 4.0 5.0 0.00 0.12 0.12 65 1015.5
20260506234933 68 327 5.0 7.0 0.00 0.12 0.12 65 1015.5
20260506234432 68 122 7.0 10.0 0.00 0.12 0.12 65 1015.2
20260506233929 69 344 6.0 8.0 0.00 0.12 0.12 64 1015.5
20260506233425 70 355 5.0 8.0 0.00 0.12 0.12 62 1015.5
20260506232922 73 135 1.0 2.0 0.00 0.12 0.12 60 1015.2
20260506232418 72 134 0.0 0.0 0.00 0.12 0.12 61 1015.2
20260506231914 72 99 4.0 5.0 0.00 0.12 0.12 60 1015.2
20260506231412 74 138 0.0 0.0 0.00 0.12 0.12 58 1015.2
20260506230909 76 121 3.0 3.0 0.00 0.12 0.12 58 1015.2
20260506230405 76 136 0.0 1.0 0.00 0.12 0.12 56 1014.8
20260506225902 76 137 1.0 1.0 0.00 0.12 0.12 57 1014.8
20260506225359 76 143 0.0 1.0 0.00 0.12 0.12 56 1015.2
20260506224856 76 125 1.0 2.0 0.00 0.12 0.12 55 1014.8
20260506224354 75 140 0.0 1.0 0.00 0.12 0.12 59 1015.2
20260506223849 76 105 0.0 1.0 0.00 0.12 0.12 55 1015.2
20260506223345 75 138 1.0 1.0 0.00 0.12 0.12 58 1014.8
20260506222842 74 120 1.0 1.0 0.00 0.12 0.12 58 1014.8
20260506222338 74 144 0.0 0.0 0.00 0.12 0.12 59 1014.8
20260506221836 74 143 0.0 0.0 0.00 0.12 0.12 60 1014.8
20260506221333 73 141 0.0 1.0 0.00 0.12 0.12 61 1014.8
20260506220831 72 136 0.0 0.0 0.00 0.12 0.12 61 1014.8
20260506220326 72 138 0.0 0.0 0.00 0.12 0.12 63 1014.8
20260506215823 71 134 1.0 1.0 0.00 0.12 0.12 61 1014.8
20260506215318 73 106 1.0 2.0 0.00 0.12 0.12 58 1015.2
20260506214815 74 139 0.0 0.0 0.00 0.12 0.12 59 1014.8
20260506214311 73 135 0.0 0.0 0.00 0.12 0.12 61 1014.8
20260506213810 73 139 0.0 0.0 0.00 0.12 0.12 59 1014.8
20260506213307 72 134 0.0 0.0 0.00 0.12 0.12 62 1015.2
20260506212804 73 132 0.0 1.0 0.00 0.12 0.12 62 1015.2
20260506212300 72 136 0.0 0.0 0.00 0.12 0.12 63 1015.2
20260506211754 73 139 0.0 0.0 0.00 0.12 0.12 60 1015.2
20260506211251 72 123 4.0 5.0 0.00 0.12 0.12 63 1015.2
20260506210748 74 111 1.0 1.0 0.00 0.12 0.12 58 1015.2
20260506210245 73 136 2.0 2.0 0.00 0.12 0.12 60 1015.2
20260506205742 71 136 0.0 1.0 0.00 0.12 0.12 64 1015.2
20260506205238 71 131 2.0 2.0 0.00 0.12 0.12 63 1015.2
20260506204735 71 131 2.0 2.0 0.00 0.12 0.12 63 1015.5
20260506204232 70 123 1.0 1.0 0.00 0.12 0.12 62 1015.2
20260506203730 68 133 0.0 0.0 0.00 0.12 0.12 65 1015.2
20260506203227 69 124 0.0 1.0 0.00 0.12 0.12 66 1015.5
20260506202725 69 132 1.0 1.0 0.00 0.12 0.12 64 1015.9
20260506202221 70 126 1.0 1.0 0.00 0.12 0.12 63 1015.9
20260506201718 68 129 2.0 2.0 0.00 0.12 0.12 63 1015.5
20260506201215 69 44 2.0 2.0 0.00 0.12 0.12 63 1015.9
20260506200712 69 132 2.0 3.0 0.00 0.12 0.12 63 1015.9
20260506200208 69 126 1.0 2.0 0.00 0.12 0.12 64 1015.9
20260506195705 67 134 0.0 0.0 0.00 0.12 0.12 65 1015.9
20260506195201 69 132 0.0 1.0 0.00 0.12 0.12 63 1015.9
20260506194659 68 134 0.0 0.0 0.00 0.12 0.12 64 1015.9
20260506194155 67 112 0.0 1.0 0.00 0.12 0.12 66 1016.2
20260506193653 69 133 0.0 0.0 0.00 0.12 0.12 63 1016.2
20260506193149 68 134 0.0 1.0 0.00 0.12 0.12 65 1016.2
20260506192646 68 110 2.0 2.0 0.00 0.12 0.12 65 1016.2
20260506192142 66 132 0.0 0.0 0.00 0.12 0.12 67 1016.5
20260506191639 66 27 3.0 5.0 0.00 0.12 0.12 66 1016.5
20260506191135 66 254 3.0 5.0 0.00 0.12 0.12 64 1016.5
20260506190633 67 133 0.0 1.0 0.00 0.12 0.12 64 1016.5
20260506190129 67 140 1.0 1.0 0.00 0.12 0.12 67 1016.9
20260506185627 66 113 1.0 1.0 0.00 0.12 0.12 69 1016.9
20260506185123 64 107 2.0 2.0 0.00 0.12 0.12 68 1016.5
20260506184620 66 129 1.0 2.0 0.00 0.12 0.12 66 1016.9
20260506184117 65 69 4.0 5.0 0.00 0.12 0.12 67 1016.9
20260506183614 64 131 2.0 2.0 0.00 0.12 0.12 67 1016.9
20260506183110 63 50 2.0 5.0 0.00 0.12 0.12 68 1016.9
20260506182608 65 105 3.0 3.0 0.00 0.12 0.12 67 1016.5
20260506182105 64 136 0.0 0.0 0.00 0.12 0.12 71 1016.5
20260506181602 64 14 3.0 5.0 0.00 0.12 0.12 69 1016.5
20260506181059 64 354 3.0 3.0 0.00 0.12 0.12 70 1016.9
20260506180556 63 92 2.0 2.0 0.00 0.12 0.12 70 1016.9
20260506180053 63 337 2.0 7.0 0.00 0.12 0.12 71 1017.2
20260506175549 60 120 4.0 5.0 0.00 0.12 0.12 75 1016.9
20260506175045 62 107 1.0 1.0 0.00 0.12 0.12 73 1016.9
20260506174544 61 54 3.0 3.0 0.00 0.12 0.12 73 1016.9
20260506174039 60 115 3.0 5.0 0.00 0.12 0.12 74 1017.2
20260506173537 59 123 2.0 2.0 0.00 0.12 0.12 75 1017.2
20260506173034 59 108 2.0 3.0 0.00 0.12 0.12 76 1017.2
20260506172531 59 136 0.0 1.0 0.00 0.12 0.12 79 1017.2
20260506172022 58 138 0.0 0.0 0.00 0.12 0.12 79 1017.2
20260506171519 58 50 5.0 7.0 0.00 0.12 0.12 77 1017.2
20260506171017 59 133 0.0 0.0 0.00 0.12 0.12 81 1017.6
20260506170514 59 131 1.0 1.0 0.00 0.12 0.12 83 1017.2
20260506170012 58 130 0.0 0.0 0.00 0.12 0.12 83 1017.2
20260506165510 57 111 0.0 2.0 0.00 0.12 0.12 85 1017.2
20260506165006 56 162 1.0 2.0 0.00 0.12 0.12 86 1017.2
20260506164503 57 132 2.0 3.0 0.00 0.12 0.12 87 1016.9
20260506164000 56 123 5.0 7.0 0.00 0.12 0.12 88 1016.9
20260506163455 55 129 1.0 1.0 0.00 0.12 0.12 91 1016.9
20260506162950 55 128 0.0 1.0 0.00 0.12 0.12 93 1016.9
20260506162448 55 62 1.0 2.0 0.00 0.12 0.12 94 1016.9
20260506161945 54 126 0.0 1.0 0.00 0.12 0.12 95 1017.2
20260506161443 54 47 3.0 5.0 0.00 0.12 0.12 95 1016.9
20260506160940 53 121 3.0 3.0 0.00 0.12 0.12 95 1016.5
20260506160438 52 133 0.0 0.0 0.00 0.12 0.12 97 1016.5
20260506155935 51 14 3.0 3.0 0.00 0.12 0.12 97 1016.5
20260506155432 51 335 2.0 5.0 0.00 0.12 0.12 97 1016.5
20260506153554 51 122 3.0 5.0 0.00 0.12 0.12 97 1016.9
20260506153052 51 107 0.0 0.0 0.00 0.12 0.12 97 1016.9
20260506152548 51 118 1.0 1.0 0.00 0.12 0.12 97 1016.9
20260506152046 51 130 0.0 1.0 0.00 0.12 0.12 97 1016.5
20260506151544 52 233 5.0 8.0 0.00 0.12 0.12 97 1016.2
20260506151041 51 133 0.0 0.0 0.00 0.12 0.12 98 1016.5
20260506150537 51 78 4.0 6.0 0.00 0.12 0.12 97 1015.9
20260506150034 51 327 2.0 3.0 0.00 0.12 0.12 97 1016.2
20260506145531 52 31 3.0 3.0 0.00 0.12 0.12 97 1016.5
20260506145029 52 113 1.0 1.0 0.00 0.12 0.12 97 1016.5
20260506144525 52 119 3.0 3.0 0.00 0.12 0.12 97 1016.9
20260506144023 51 35 1.0 2.0 0.07 0.12 0.12 96 1016.9
20260506143520 51 129 0.0 1.0 0.12 0.12 0.12 96 1016.9
20260506143018 51 131 0.0 1.0 0.19 0.11 0.11 96 1016.9
20260506142516 51 114 2.0 2.0 0.24 0.09 0.09 95 1016.9
20260506142014 51 82 4.0 6.0 0.19 0.07 0.07 95 1017.2
20260506141511 51 114 1.0 2.0 0.12 0.05 0.05 94 1018.3
20260506141010 51 116 2.0 2.0 0.05 0.04 0.04 94 1019.0
20260506140506 51 109 2.0 2.0 0.00 0.03 0.03 93 1018.3
20260506140004 52 129 0.0 0.0 0.07 0.03 0.03 93 1018.0
20260506135500 51 133 1.0 1.0 0.07 0.03 0.03 93 1017.2
20260506134956 51 308 4.0 6.0 0.05 0.02 0.02 92 1016.9
20260506134452 52 116 3.0 5.0 0.05 0.02 0.02 91 1016.9
20260506133949 52 128 2.0 3.0 0.07 0.01 0.01 90 1016.5
20260506133446 52 118 3.0 3.0 0.07 0.01 0.01 89 1016.9
20260506132943 52 109 0.0 0.0 0.00 0.00 0.00 88 1016.9
20260506132440 52 123 1.0 1.0 0.00 0.00 0.00 87 1016.5
20260506131938 53 16 4.0 8.0 0.00 0.00 0.00 87 1016.2
20260506131434 53 128 1.0 1.0 0.00 0.00 0.00 86 1016.2
20260506130931 53 55 3.0 3.0 0.00 0.00 0.00 84 1016.9
20260506130428 53 39 4.0 6.0 0.00 0.00 0.00 83 1016.9
20260506125926 53 106 2.0 3.0 0.00 0.00 0.00 83 1017.2
20260506125424 53 75 3.0 3.0 0.00 0.00 0.00 82 1017.2
20260506124922 53 100 3.0 3.0 0.00 0.00 0.00 82 1016.5
20260506124419 53 357 4.0 5.0 0.00 0.00 0.00 81 1015.9
20260506123917 53 85 1.0 1.0 0.00 0.00 0.00 82 1015.9
20260506123414 53 133 0.0 0.0 0.00 0.00 0.00 82 1015.5
20260506122912 53 140 0.0 1.0 0.00 0.00 0.00 82 1015.2
20260506122408 53 142 0.0 0.0 0.00 0.00 0.00 82 1015.2
20260506121907 53 129 0.0 0.0 0.00 0.00 0.00 82 1015.2
20260506121403 53 122 3.0 5.0 0.00 0.00 0.00 82 1014.8
20260506120900 53 88 3.0 5.0 0.00 0.00 0.00 82 1014.8
20260506120358 53 15 2.0 5.0 0.00 0.00 0.00 82 1014.8
20260506115855 53 5 1.0 2.0 0.00 0.00 0.00 82 1014.8
20260506115353 53 124 3.0 5.0 0.00 0.00 0.00 81 1014.8
20260506114851 53 352 7.0 10.0 0.00 0.00 0.00 81 1015.2
20260506114348 53 104 4.0 6.0 0.00 0.00 0.00 82 1014.8
20260506113847 53 73 4.0 6.0 0.00 0.00 0.00 81 1014.8
20260506113344 53 134 1.0 2.0 0.00 0.00 0.00 81 1015.2
20260506112840 53 121 4.0 6.0 0.00 0.00 0.00 81 1014.8
20260506112338 53 323 3.0 5.0 0.00 0.00 0.00 81 1014.8
20260506111835 54 113 1.0 2.0 0.00 0.00 0.00 82 1014.8
20260506111333 54 343 7.0 8.0 0.00 0.00 0.00 83 1014.8
20260506110830 54 43 5.0 6.0 0.00 0.00 0.00 83 1014.8
20260506110327 54 112 4.0 6.0 0.00 0.00 0.00 82 1014.8
20260506105824 54 114 1.0 2.0 0.00 0.00 0.00 82 1014.5
20260506105320 54 56 4.0 6.0 0.00 0.00 0.00 81 1014.5
20260506104818 54 112 2.0 2.0 0.00 0.00 0.00 82 1014.1
20260506104316 54 327 7.0 9.0 0.00 0.00 0.00 82 1014.1
20260506103813 54 326 5.0 7.0 0.00 0.00 0.00 81 1014.1
20260506103311 55 112 3.0 3.0 0.00 0.00 0.00 81 1014.1
20260506102808 55 122 3.0 5.0 0.00 0.00 0.00 81 1013.7
20260506102306 55 62 2.0 2.0 0.00 0.00 0.00 81 1014.1
20260506101803 55 34 4.0 6.0 0.00 0.00 0.00 81 1013.7
20260506101258 55 86 4.0 9.0 0.00 0.00 0.00 82 1013.7
20260506100757 55 86 3.0 5.0 0.00 0.00 0.00 82 1013.4
20260506100255 55 115 2.0 2.0 0.00 0.00 0.00 83 1013.4
20260506095753 55 75 5.0 6.0 0.00 0.00 0.00 82 1013.4
20260506095250 56 133 0.0 0.0 0.00 0.00 0.00 83 1013.4
20260506094746 56 128 3.0 5.0 0.00 0.00 0.00 82 1013.1
20260506094245 56 114 0.0 1.0 0.00 0.00 0.00 82 1013.1
20260506093743 56 90 0.0 1.0 0.00 0.00 0.00 82 1013.1
20260506093240 56 135 0.0 0.0 0.00 0.00 0.00 83 1013.1
20260506092737 56 330 6.0 8.0 0.00 0.00 0.00 83 1012.7
20260506092235 56 107 4.0 6.0 0.00 0.00 0.00 84 1012.7
20260506091732 56 125 0.0 2.0 0.00 0.00 0.00 84 1012.7
20260506091230 56 128 1.0 1.0 0.00 0.00 0.00 85 1012.7
20260506090727 56 325 4.0 6.0 0.00 0.00 0.00 84 1012.7
20260506090224 56 101 3.0 3.0 0.00 0.00 0.00 85 1013.1
20260506085721 56 89 3.0 5.0 0.00 0.00 0.00 85 1013.1
20260506085217 56 109 3.0 3.0 0.00 0.00 0.00 85 1012.7
20260506084714 56 123 2.0 3.0 0.00 0.00 0.00 85 1013.1
20260506084210 56 114 2.0 2.0 0.00 0.00 0.00 85 1012.7
20260506083707 56 343 3.0 5.0 0.00 0.00 0.00 85 1012.7
20260506083205 56 122 2.0 2.0 0.00 0.00 0.00 85 1012.7
20260506082702 56 121 0.0 0.0 0.00 0.00 0.00 86 1012.7
20260506082203 56 108 0.0 0.0 0.00 0.00 0.00 86 1012.7
20260506081701 56 116 2.0 2.0 0.00 0.00 0.00 86 1012.7
20260506081158 55 114 0.0 1.0 0.00 0.00 0.00 86 1012.7
20260506080656 55 130 2.0 3.0 0.00 0.00 0.00 86 1013.1
20260506080152 55 130 1.0 1.0 0.00 0.00 0.00 86 1012.4
20260506073136 55 92 3.0 3.0 0.00 0.00 0.00 86 1012.7
20260506072633 56 119 1.0 2.0 0.00 0.00 0.00 86 1012.7
20260506072131 56 110 1.0 2.0 0.00 0.00 0.00 86 1012.7
20260506071628 56 148 1.0 1.0 0.00 0.00 0.00 86 1012.4
20260506071126 56 6 4.0 5.0 0.00 0.00 0.00 86 1012.4
20260506070622 56 105 2.0 2.0 0.00 0.00 0.00 86 1012.0
20260506070119 56 118 2.0 3.0 0.00 0.00 0.00 85 1012.4
20260506062057 57 113 1.0 2.0 0.00 0.00 0.00 85 1011.4
20260506061552 57 136 0.0 0.0 0.00 0.00 0.00 85 1011.7
20260506061050 57 133 0.0 0.0 0.00 0.00 0.00 84 1011.7
20260506060549 57 132 0.0 0.0 0.00 0.00 0.00 84 1011.7
20260506051017 59 132 1.0 2.0 0.00 0.00 0.00 81 1012.0
20260506050515 59 129 0.0 0.0 0.00 0.00 0.00 81 1012.4